| time (UTC) | temp F | wind direction | speed MPH | gust MPH | rain 1hr in | rain 24hr in | rain mn in | humidity % | barometer mb |
| 20260905222502 | 95 | 180 | 1.0 | 2.0 | 0.00 | 0.00 | 0.00 | 55 | 1010.5 |
| 20260905221403 | 95 | 158 | 1.0 | 3.0 | 0.00 | 0.00 | 0.00 | 55 | 1010.2 |
| 20260905220202 | 94 | 180 | 2.0 | 4.0 | 0.00 | 0.00 | 0.00 | 56 | 1009.8 |
| 20260905215103 | 94 | 180 | 2.0 | 5.0 | 0.00 | 0.00 | 0.00 | 55 | 1010.2 |
| 20260905214003 | 95 | 45 | 5.0 | 6.0 | 0.00 | 0.00 | 0.00 | 55 | 1010.2 |
| 20260905211702 | 93 | 270 | 2.0 | 2.0 | 0.00 | 0.00 | 0.00 | 56 | 1010.5 |
| 20260905205502 | 92 | 225 | 2.0 | 4.0 | 0.00 | 0.00 | 0.00 | 55 | 1010.8 |
| 20260905204402 | 93 | 270 | 1.0 | 3.0 | 0.00 | 0.00 | 0.00 | 55 | 1011.2 |
| 20260905203202 | 92 | 180 | 3.0 | 4.0 | 0.00 | 0.00 | 0.00 | 55 | 1011.2 |
| 20260905202102 | 91 | 225 | 2.0 | 4.0 | 0.00 | 0.00 | 0.00 | 56 | 1011.5 |
| 20260905201002 | 91 | 293 | 3.0 | 4.0 | 0.00 | 0.00 | 0.00 | 55 | 1011.9 |
| 20260905195902 | 91 | 270 | 3.0 | 5.0 | 0.00 | 0.00 | 0.00 | 56 | 1012.2 |
| 20260905194702 | 90 | 248 | 2.0 | 5.0 | 0.00 | 0.00 | 0.00 | 59 | 1012.5 |
| 20260905192402 | 89 | 225 | 3.0 | 5.0 | 0.00 | 0.00 | 0.00 | 58 | 1012.5 |
| 20260905190202 | 89 | 248 | 3.0 | 4.0 | 0.00 | 0.00 | 0.00 | 59 | 1013.2 |
| 20260905185102 | 88 | 225 | 5.0 | 8.0 | 0.00 | 0.00 | 0.00 | 63 | 1013.2 |
| 20260905184002 | 88 | 270 | 3.0 | 6.0 | 0.00 | 0.00 | 0.00 | 63 | 1013.5 |
| 20260905182902 | 88 | 270 | 3.0 | 4.0 | 0.00 | 0.00 | 0.00 | 66 | 1013.5 |
| 20260905181702 | 88 | 270 | 4.0 | 4.0 | 0.00 | 0.00 | 0.00 | 68 | 1013.5 |
| 20260905180602 | 86 | 270 | 2.0 | 5.0 | 0.00 | 0.00 | 0.00 | 70 | 1013.9 |
| 20260905175502 | 86 | 0 | 10.0 | 10.0 | 0.00 | 0.00 | 0.00 | 71 | 1013.9 |
| 20260905174402 | 85 | 248 | 2.0 | 7.0 | 0.00 | 0.00 | 0.00 | 73 | 1013.9 |
| 20260905173303 | 85 | 270 | 4.0 | 7.0 | 0.00 | 0.00 | 0.00 | 74 | 1013.9 |
| 20260905172202 | 84 | 293 | 7.0 | 10.0 | 0.00 | 0.00 | 0.00 | 75 | 1013.9 |
| 20260905171102 | 84 | 135 | 4.0 | 6.0 | 0.00 | 0.00 | 0.00 | 74 | 1013.9 |
| 20260905170003 | 85 | 180 | 10.0 | 10.0 | 0.00 | 0.00 | 0.00 | 73 | 1013.9 |
| 20260905165003 | 85 | 225 | 4.0 | 6.0 | 0.00 | 0.00 | 0.00 | 73 | 1013.9 |
| 20260905163902 | 85 | 293 | 4.0 | 5.0 | 0.00 | 0.00 | 0.00 | 71 | 1014.2 |
| 20260905162902 | 84 | 248 | 3.0 | 4.0 | 0.00 | 0.00 | 0.00 | 74 | 1013.9 |
| 20260905160702 | 84 | 203 | 4.0 | 6.0 | 0.00 | 0.00 | 0.00 | 75 | 1013.9 |
| 20260905155602 | 85 | 203 | 2.0 | 3.0 | 0.00 | 0.00 | 0.00 | 70 | 1013.5 |
| 20260905154402 | 84 | 248 | 2.0 | 4.0 | 0.00 | 0.00 | 0.00 | 75 | 1013.2 |
| 20260905153302 | 84 | 225 | 4.0 | 4.0 | 0.00 | 0.00 | 0.00 | 73 | 1013.5 |
| 20260905152302 | 84 | 225 | 2.0 | 3.0 | 0.00 | 0.00 | 0.00 | 74 | 1013.2 |
| 20260905143502 | 83 | 203 | 3.0 | 3.0 | 0.00 | 0.00 | 0.00 | 74 | 1012.5 |
| 20260905142402 | 83 | 225 | 0.0 | 1.0 | 0.00 | 0.00 | 0.00 | 75 | 1012.2 |
| 20260905141302 | 83 | 270 | 2.0 | 2.0 | 0.00 | 0.00 | 0.00 | 75 | 1012.2 |
| 20260905140202 | 82 | 90 | 0.0 | 0.0 | 0.00 | 0.00 | 0.00 | 75 | 1012.2 |
| 20260905135102 | 81 | 158 | 0.0 | 2.0 | 0.00 | 0.00 | 0.00 | 78 | 1011.5 |
| 20260905134003 | 79 | 203 | 0.0 | 0.0 | 0.00 | 0.00 | 0.00 | 81 | 1011.9 |
| 20260905132902 | 78 | 225 | 0.0 | 0.0 | 0.00 | 0.00 | 0.00 | 81 | 1012.2 |
| 20260905131803 | 77 | 203 | 0.0 | 0.0 | 0.00 | 0.00 | 0.00 | 81 | 1011.9 |
| 20260905130703 | 76 | 225 | 0.0 | 0.0 | 0.00 | 0.00 | 0.00 | 83 | 1011.5 |
| 20260905125702 | 75 | 248 | 0.0 | 0.0 | 0.00 | 0.00 | 0.00 | 83 | 1011.5 |
| 20260905124502 | 75 | 248 | 0.0 | 0.0 | 0.00 | 0.00 | 0.00 | 83 | 1011.5 |
| 20260905123302 | 75 | 203 | 0.0 | 0.0 | 0.00 | 0.00 | 0.00 | 83 | 1011.2 |
| 20260905122203 | 75 | 203 | 0.0 | 0.0 | 0.00 | 0.00 | 0.00 | 83 | 1011.2 |
| 20260905121102 | 75 | 248 | 0.0 | 0.0 | 0.00 | 0.00 | 0.00 | 81 | 1011.2 |
| 20260905115702 | 75 | 270 | 0.0 | 0.0 | 0.00 | 0.00 | 0.00 | 81 | 1010.8 |
| 20260905114602 | 75 | 180 | 0.0 | 0.0 | 0.00 | 0.00 | 0.00 | 83 | 1010.5 |
| 20260905113202 | 75 | 248 | 0.0 | 0.0 | 0.00 | 0.00 | 0.00 | 83 | 1011.2 |
| 20260905105802 | 76 | 180 | 0.0 | 0.0 | 0.00 | 0.00 | 0.00 | 81 | 1010.5 |
| 20260905104602 | 75 | 225 | 0.0 | 0.0 | 0.00 | 0.00 | 0.00 | 83 | 1010.8 |
| 20260905103403 | 75 | 225 | 0.0 | 0.0 | 0.00 | 0.00 | 0.00 | 83 | 1010.8 |
| 20260905102305 | 76 | 225 | 0.0 | 1.0 | 0.00 | 0.00 | 0.00 | 83 | 1010.5 |
| 20260905101202 | 76 | 248 | 0.0 | 0.0 | 0.00 | 0.00 | 0.00 | 81 | 1010.8 |
| 20260905095002 | 77 | 225 | 0.0 | 0.0 | 0.00 | 0.00 | 0.00 | 80 | 1010.5 |
| 20260905093902 | 77 | 248 | 2.0 | 2.0 | 0.00 | 0.00 | 0.00 | 80 | 1010.5 |
| 20260905091402 | 77 | 158 | 0.0 | 0.0 | 0.00 | 0.00 | 0.00 | 81 | 1010.5 |
| 20260905090103 | 77 | 158 | 0.0 | 0.0 | 0.00 | 0.00 | 0.00 | 81 | 1010.5 |
| 20260905085102 | 77 | 158 | 0.0 | 0.0 | 0.00 | 0.00 | 0.00 | 81 | 1010.5 |
| 20260905083902 | 77 | 180 | 0.0 | 0.0 | 0.00 | 0.00 | 0.00 | 81 | 1010.8 |
| 20260905082502 | 77 | 158 | 0.0 | 0.0 | 0.00 | 0.00 | 0.00 | 81 | 1010.8 |
| 20260905075902 | 78 | 113 | 0.0 | 0.0 | 0.00 | 0.00 | 0.00 | 81 | 1010.8 |
| 20260905074402 | 78 | 0 | 0.0 | 0.0 | 0.00 | 0.00 | 0.00 | 80 | 1010.8 |
| 20260905072002 | 79 | 158 | 0.0 | 0.0 | 0.00 | 0.00 | 0.00 | 79 | 1011.2 |
| 20260905070902 | 79 | 158 | 0.0 | 0.0 | 0.00 | 0.00 | 0.00 | 79 | 1011.2 |
| 20260905065702 | 79 | 158 | 0.0 | 0.0 | 0.00 | 0.00 | 0.00 | 79 | 1011.2 |
| 20260905064602 | 79 | 158 | 0.0 | 0.0 | 0.00 | 0.00 | 0.00 | 80 | 1011.2 |
| 20260905063502 | 79 | 158 | 0.0 | 0.0 | 0.00 | 0.00 | 0.00 | 81 | 1011.5 |
| 20260905062402 | 80 | 158 | 0.0 | 0.0 | 0.00 | 0.00 | 0.00 | 81 | 1011.2 |
| 20260905055702 | 80 | 158 | 0.0 | 0.0 | 0.00 | 0.00 | 0.00 | 79 | 1011.5 |
| 20260905054502 | 81 | 135 | 0.0 | 0.0 | 0.00 | 0.00 | 0.00 | 79 | 1011.5 |
| 20260905053402 | 81 | 158 | 0.0 | 0.0 | 0.00 | 0.00 | 0.00 | 79 | 1011.2 |
| 20260905052306 | 81 | 158 | 0.0 | 0.0 | 0.00 | 0.00 | 0.00 | 78 | 1011.2 |
| 20260905050103 | 82 | 158 | 0.0 | 1.0 | 0.00 | 0.00 | 0.00 | 76 | 1011.2 |
| 20260905045305 | 82 | 158 | 0.0 | 0.0 | 0.00 | 0.00 | 0.00 | 76 | 1011.2 |
| 20260905043903 | 82 | 90 | 0.0 | 0.0 | 0.00 | 0.00 | 0.00 | 76 | 1010.8 |
| 20260905042802 | 82 | 135 | 0.0 | 0.0 | 0.00 | 0.00 | 0.00 | 76 | 1010.8 |
| 20260905041703 | 83 | 158 | 0.0 | 0.0 | 0.00 | 0.00 | 0.00 | 75 | 1010.8 |
| 20260905035402 | 84 | 158 | 1.0 | 1.0 | 0.00 | 0.00 | 0.00 | 75 | 1010.5 |
| 20260905034203 | 84 | 113 | 0.0 | 0.0 | 0.00 | 0.00 | 0.00 | 75 | 1010.8 |
| 20260905032802 | 84 | 158 | 0.0 | 1.0 | 0.00 | 0.00 | 0.00 | 74 | 1010.5 |
| 20260905031702 | 84 | 135 | 0.0 | 0.0 | 0.00 | 0.00 | 0.00 | 74 | 1010.5 |
| 20260905030202 | 85 | 158 | 0.0 | 0.0 | 0.00 | 0.00 | 0.00 | 75 | 1010.5 |
| 20260905024403 | 85 | 158 | 0.0 | 0.0 | 0.00 | 0.00 | 0.00 | 75 | 1010.5 |
| 20260905023303 | 85 | 158 | 0.0 | 0.0 | 0.00 | 0.00 | 0.00 | 76 | 1010.2 |
| 20260905022202 | 85 | 158 | 0.0 | 0.0 | 0.00 | 0.00 | 0.00 | 78 | 1010.2 |
| 20260905021102 | 85 | 158 | 0.0 | 0.0 | 0.00 | 0.00 | 0.00 | 76 | 1010.2 |
| 20260905020003 | 86 | 158 | 0.0 | 0.0 | 0.00 | 0.00 | 0.00 | 75 | 1010.2 |
| 20260905014402 | 87 | 158 | 0.0 | 0.0 | 0.00 | 0.00 | 0.00 | 73 | 1009.8 |
| 20260905013102 | 88 | 158 | 0.0 | 0.0 | 0.00 | 0.00 | 0.00 | 70 | 1009.8 |
| 20260905011903 | 89 | 158 | 0.0 | 0.0 | 0.00 | 0.00 | 0.00 | 68 | 1009.5 |
| 20260905010803 | 89 | 158 | 0.0 | 0.0 | 0.00 | 0.00 | 0.00 | 65 | 1009.8 |
| 20260905005702 | 90 | 158 | 0.0 | 0.0 | 0.00 | 0.00 | 0.00 | 65 | 1009.5 |
| 20260905004103 | 91 | 158 | 0.0 | 1.0 | 0.00 | 0.00 | 0.00 | 65 | 1009.5 |
| 20260905003002 | 92 | 158 | 0.0 | 0.0 | 0.00 | 0.00 | 0.00 | 63 | 1009.5 |
| 20260905000503 | 93 | 135 | 0.0 | 0.0 | 0.00 | 0.00 | 0.00 | 63 | 1009.5 |
| 20260904235305 | 93 | 158 | 0.0 | 0.0 | 0.00 | 0.00 | 0.00 | 61 | 1009.1 |
| 20260904233903 | 93 | 158 | 0.0 | 2.0 | 0.00 | 0.00 | 0.00 | 59 | 1009.5 |
| 20260904232702 | 94 | 158 | 2.0 | 2.0 | 0.00 | 0.00 | 0.00 | 56 | 1009.5 |
| 20260904230402 | 96 | 158 | 2.0 | 2.0 | 0.00 | 0.00 | 0.00 | 55 | 1009.5 |
| 20260904223902 | 96 | 158 | 4.0 | 4.0 | 0.00 | 0.00 | 0.00 | 55 | 1009.5 |